{"data":{"norad_id":65867,"epoch":"2026-09-20T06:28:01.831296Z","epoch_age_seconds":125993,"freshness":"FRESH","line1":"1 65867U 25223P   26263.26946564  .00013942  00000+0  42290-3 0  9995","line2":"2 65867  53.1591 108.4588 0000553  97.6547 262.4519 15.34406420 54022","mean_motion":15.3440642,"eccentricity":5.53e-5,"inclination_deg":53.1591,"raan_deg":108.4588,"arg_perigee_deg":97.6547,"mean_anomaly_deg":262.4519,"bstar":0.0004229,"rev_number":5402,"period_min":93.847365419652,"perigee_km":462.30586127061,"apogee_km":463.06245609076,"semimajor_km":6840.8211586807,"source":"CELESTRAK","updated_at":"2026-09-21T09:00:35.727969Z"}}